Location: Rounton
(54.4000°N, 1.3500°W)
Time: 20:47:19
(UTC+01:00)

YAOGAN 20A - Pass Details

Date: 06 July 2022
Orbit: 891 x 1288 km, 63.4° (Epoch: 18 August)

Event Time Altitude Azimuth Distance (km) Brightness Sun altitude
Rises 02:10:51 0° 309° (NW) 3,895 8.4 -11.8°
Reaches altitude 10° 02:13:59 10° 296° (WNW) 3,001 7.6 -11.7°
Maximum altitude 02:19:24 24° 247° (WSW) 2,249 6.5 -11.5°
Enters shadow 02:23:58 14° 205° (SSW) 2,892 6.7 -11.3°
